Lexington Weather

Lexington, Massachusetts, USA

39°F
3/2/2024 8:45am 
  • Lexington Conditions: Mostly cloudy
  • Temperature: 39.0°F / 3.9°CWarmer 1.4°F than last hour.
  • Dew Point: 33.1°FIncreased 0.7°Fsince last hour.
  • Relative Humidity: 79%Decreased 2.0% since last hour.
  • Wind: Calm, 10-min avg: Calm, gust: None
  • Barometer: 30.45 in Steady
  • Visibility: 10 miles
  • Rain Today: 0.00 in
  •   

Regional Weather Roundup
for Boston, MA

        
000
ASUS41 KBOX 260810
RWRBOX

REGIONAL WEATHER ROUNDUP
NATIONAL WEATHER SERVICE BOSTON/NORTON MA
300 AM EST MON FEB 26 2024

NOTE:  "FAIR" INDICATES FEW OR NO CLOUDS BELOW 12,000 FEET WITH NO 
SIGNIFICANT WEATHER AND/OR OBSTRUCTIONS TO VISIBILITY.

MAZALL-260900-
EASTERN MASSACHUSETTS
  
CITY           SKY/WX    TMP DP  RH WIND       PRES   REMARKS
BOSTON         CLOUDY    31  24  75 SW12      30.04F WCI  22          
BEVERLY        CLOUDY    29  22  75 SW10      30.03F WCI  20          
LAWRENCE       CLOUDY    28  19  69 S8        30.03F WCI  20          
BEDFORD        CLOUDY    29  21  72 S8        30.02F WCI  21          
NORWOOD        CLOUDY    33  24  69 SW5       30.05F WCI  29          
MARSHFIELD     PTCLDY    28  23  80 SW7       30.06F WCI  21          
PLYMOUTH       PTCLDY    31  24  75 SW9       30.06S WCI  23          
TAUNTON        MOCLDY    28  22  78 SE5       30.06F WCI  23          
NEW BEDFORD    PTCLDY    31  26  82 S5        30.08S WCI  26          
$$

MAZALL-260900-
CAPE COD AND THE ISLANDS
  
CITY           SKY/WX    TMP DP  RH WIND       PRES   REMARKS
FALMOUTH       CLEAR     30  25  80 SW9       30.08R WCI  22          
HYANNIS        PTCLDY    33  27  78 SW14G23   30.07R WCI  23          
CHATHAM        PTCLDY    35  28  75 SW9G22    30.09S WCI  28          
PROVINCETOWN   PTCLDY    33  28  81 SW14G20   30.08S WCI  23          
NANTUCKET      PTCLDY    34  27  75 SW18      30.10F WCI  23          
MARTHAS VNYRD  PTCLDY    35  27  72 SW9G20    30.09R WCI  28          
$$
 
MAZALL-260900-
CENTRAL AND WESTERN MASSACHUSETTS
  
CITY           SKY/WX    TMP DP  RH WIND       PRES   REMARKS
WORCESTER      MOCLDY    28  22  78 SW15      29.97S WCI  16          
FITCHBURG      MOCLDY    31  20  63 S8        30.00F WCI  23          
ORANGE         PTCLDY    30  23  75 S5        30.00F WCI  25          
SPRINGFIELD    PTCLDY    30  25  80 S12       29.99F WCI  21          
WESTFIELD      MOCLDY    30  23  75 S9        30.01F WCI  22          
NORTH ADAMS    CLOUDY    34  18  52 CALM      29.96F                  
PITTSFIELD     CLOUDY    32  16  51 SW10      29.94F WCI  24          
$$
 
RIZALL-260900-
RHODE ISLAND
  
CITY           SKY/WX    TMP DP  RH WIND       PRES   REMARKS
PROVIDENCE     MOCLDY    28  24  85 S5        30.08S WCI  23          
NEWPORT        PTCLDY    35  29  78 SW6G16    30.08R WCI  30          
BLOCK ISLAND   PTCLDY    35  29  78 SW16G24   30.09S WCI  25          
SMITHFIELD     MOCLDY    29  26  89 VRB5        N/A  WCI  24          
WESTERLY       PTCLDY    37  30  75 SW13G20   30.08R WCI  29          
$$
 
CTZALL-260900-
CONNECTICUT
  
CITY           SKY/WX    TMP DP  RH WIND       PRES   REMARKS
BRADLEY INTL   CLOUDY    30  25  81 S8        30.04F WCI  22          
HARTFORD       CLOUDY    33  27  78 S7        30.06R WCI  27          
PLAINVILLE     CLOUDY    32  27  80 S5        30.05S WCI  28          
BRIDGEPORT     MOCLDY    37  26  64 SW13      30.07S WCI  29          
DANBURY        CLOUDY    35  19  52 SW6       30.05F WCI  30          
GROTON         MOCLDY    38  31  76 SW13      30.08R WCI  30          
NEW HAVEN      CLOUDY    39  28  64 SW8       30.07S                  
CHESTER        MOCLDY    34  30  86 S8        30.06S WCI  27          
MERIDEN        CLOUDY    31  25  78 S6        30.07S WCI  25          
WILLIMANTIC    MOCLDY    24  21  88 CALM      30.06F                  
OXFORD         CLOUDY    29  25  85 SW5       30.04S WCI  24          
$$

MEZ002-015-021-024-NHZ003-005-008-011-012-014-VTZ005-008-260900-
NORTHERN NEW ENGLAND
  
CITY           SKY/WX    TMP DP  RH WIND       PRES   REMARKS
PORTLAND ME    MOCLDY    27  15  61 SW7       29.99F WCI  19          
BANGOR ME      MOCLDY    25  20  81 S3        29.98F                  
CONCORD NH     MOCLDY    27  15  61 S8        29.97F WCI  19          
MANCHESTER NH  CLOUDY    30  17  58 S10       29.98F WCI  21          
NASHUA NH      MOCLDY    28  19  69 CALM      30.01F                  
PORTSMOUTH NH  CLOUDY    28  16  60 S7        30.00F WCI  21          
JAFFREY NH     MOCLDY    30  20  66 S6        29.95F WCI  24          
KEENE NH       MOCLDY    27  19  72 CALM      29.99F                  
BURLINGTON VT  CLOUDY    36  14  40 S18G28    29.86S WCI  26          
MT. WASHINGTON SNOW      16  16 100 W43G53      N/A  VSB 0   WCI  -7  
$$

NYZ052-076-260900-
EASTERN NEW YORK
  
CITY           SKY/WX    TMP DP  RH WIND       PRES   REMARKS
ALBANY         CLOUDY    35  16  45 S10       29.98F WCI  27          
NEW YORK CITY  MOCLDY    36  21  54 SW9       30.07S WCI  29          
$$
 
ANZALL-260900-
MARINE OBSERVATIONS
  
STATION/POSITION TIME  TEMP    WIND        PRES    VSBY  WAVE
                       AIR SEA DIR/SP/G                  HT/PER
                 (UTC) (F)     (DEG/KT/KT) (MB)    (MI)  (FT/S)
BOSTON BUOY      0750   33 40  200/ 17/ 21 1017.2F         3/ 9
BUZZARDS BAY     0700   36     230/ 24/ 25 1019.1F
NANTUCKET SOUND  0750   37 37  220/ 17/ 21 1018.4R         2/ 4
MASS BAY-STELLWA 0604   34 39  210/ 21/ 25 1017.3F  1 7/8  4/ 4
ISLE OF SHOALS   0700   32     220/ 23/ 25 1016.2F
S OF BLOCK IS    0756      40                N/A           5/ 5
$$

......................KEY.........................
  SKY/WX - SKY CONDITION/PRESENT WEATHER
  TMP    - TEMPERATURE IN FAHRENHEIT
  DWPT   - DEWPOINT IN FAHRENHEIT
  RH     - RELATIVE HUMIDITY IN PERCENT
  WIND   - DIRECTION AND SPEED IN MPH
  PRES   - MEAN SEA LEVEL PRESSURE IN INCHES OF HG
  WCI    - WIND CHILL INDEX
  VSB    - VISIBILITY IN MILES
  HX     - HEAT INDEX
  TC     - TEMPERATURE IN CELSIUS
  VRB    - VARIABLE WIND DIRECTION
  N/A    - NOT AVAILABLE
  
      

Other recent Regional Weather Roundups

Sat Mar 2, 8:10am EST

Sat Mar 2, 7:10am EST

Sat Mar 2, 6:10am EST

Sat Mar 2, 5:10am EST

Sat Mar 2, 4:10am EST

Sat Mar 2, 3:10am EST

Sat Mar 2, 2:10am EST

Sat Mar 2, 1:10am EST

Sat Mar 2, 12:10am EST

Fri Mar 1, 11:10pm EST

Fri Mar 1, 10:10pm EST

Fri Mar 1, 9:10pm EST

Fri Mar 1, 8:10pm EST

Fri Mar 1, 7:10pm EST

Fri Mar 1, 6:10pm EST

Fri Mar 1, 5:10pm EST

Fri Mar 1, 4:10pm EST

Fri Mar 1, 3:10pm EST

Fri Mar 1, 2:10pm EST

Fri Mar 1, 1:10pm EST

Fri Mar 1, 12:10pm EST

Fri Mar 1, 11:10am EST

Fri Mar 1, 10:10am EST

Fri Mar 1, 9:10am EST

Fri Mar 1, 8:10am EST

Fri Mar 1, 7:10am EST

Fri Mar 1, 6:10am EST

Fri Mar 1, 5:10am EST

Fri Mar 1, 4:10am EST

Fri Mar 1, 3:10am EST

Fri Mar 1, 2:10am EST

Fri Mar 1, 1:10am EST

Fri Mar 1, 12:10am EST

Thu Feb 29, 11:10pm EST

Thu Feb 29, 10:10pm EST

Thu Feb 29, 9:10pm EST

Thu Feb 29, 8:10pm EST

Thu Feb 29, 7:10pm EST

Thu Feb 29, 6:10pm EST

Thu Feb 29, 5:10pm EST

Thu Feb 29, 4:10pm EST

Thu Feb 29, 3:10pm EST

Thu Feb 29, 2:10pm EST

Thu Feb 29, 1:10pm EST

Thu Feb 29, 12:10pm EST

Thu Feb 29, 11:10am EST

Thu Feb 29, 10:10am EST

Thu Feb 29, 9:10am EST

Thu Feb 29, 8:10am EST

Thu Feb 29, 7:10am EST

Thu Feb 29, 6:10am EST

Thu Feb 29, 5:10am EST

Thu Feb 29, 4:10am EST

Thu Feb 29, 3:10am EST

Thu Feb 29, 2:10am EST

Thu Feb 29, 1:10am EST

Thu Feb 29, 12:10am EST

Wed Feb 28, 11:10pm EST

Wed Feb 28, 10:10pm EST

Wed Feb 28, 9:10pm EST

Wed Feb 28, 8:10pm EST

Wed Feb 28, 7:10pm EST

Wed Feb 28, 6:10pm EST

Wed Feb 28, 5:10pm EST

Wed Feb 28, 4:10pm EST

Wed Feb 28, 3:10pm EST

Wed Feb 28, 2:10pm EST

Wed Feb 28, 1:10pm EST

Wed Feb 28, 12:10pm EST

Wed Feb 28, 11:10am EST

Wed Feb 28, 10:10am EST

Wed Feb 28, 9:10am EST

Wed Feb 28, 8:10am EST

Wed Feb 28, 7:10am EST

Wed Feb 28, 6:10am EST

Wed Feb 28, 5:10am EST

Wed Feb 28, 4:10am EST

Wed Feb 28, 3:10am EST

Wed Feb 28, 2:10am EST

Wed Feb 28, 1:10am EST

Wed Feb 28, 12:10am EST

Tue Feb 27, 11:10pm EST

Tue Feb 27, 10:10pm EST

Tue Feb 27, 9:10pm EST

Tue Feb 27, 8:10pm EST

Tue Feb 27, 7:10pm EST

Tue Feb 27, 6:10pm EST

Tue Feb 27, 5:10pm EST

Tue Feb 27, 4:10pm EST

Tue Feb 27, 3:10pm EST

Tue Feb 27, 2:10pm EST

Tue Feb 27, 1:10pm EST

Tue Feb 27, 12:10pm EST

Tue Feb 27, 11:10am EST

Tue Feb 27, 10:10am EST

Tue Feb 27, 9:10am EST

Tue Feb 27, 8:10am EST

Tue Feb 27, 7:10am EST

Tue Feb 27, 6:10am EST

Tue Feb 27, 5:10am EST

Tue Feb 27, 4:10am EST

Tue Feb 27, 3:10am EST

Tue Feb 27, 2:10am EST

Tue Feb 27, 1:10am EST

Tue Feb 27, 12:10am EST

Mon Feb 26, 11:10pm EST

Mon Feb 26, 10:10pm EST

Mon Feb 26, 9:10pm EST

Mon Feb 26, 8:10pm EST

Mon Feb 26, 7:10pm EST

Mon Feb 26, 6:10pm EST

Mon Feb 26, 5:10pm EST

Mon Feb 26, 4:10pm EST

Mon Feb 26, 3:10pm EST

Mon Feb 26, 2:10pm EST

Mon Feb 26, 1:10pm EST

Mon Feb 26, 12:10pm EST

Mon Feb 26, 11:10am EST

Mon Feb 26, 10:10am EST

Mon Feb 26, 9:10am EST

Mon Feb 26, 8:10am EST

Mon Feb 26, 7:10am EST

Mon Feb 26, 6:10am EST

Mon Feb 26, 5:10am EST

Mon Feb 26, 4:10am EST

Mon Feb 26, 2:10am EST

Mon Feb 26, 1:10am EST

Mon Feb 26, 12:10am EST

Sun Feb 25, 11:10pm EST

Sun Feb 25, 10:10pm EST

Sun Feb 25, 9:10pm EST

Sun Feb 25, 8:10pm EST

Sun Feb 25, 7:10pm EST

Sun Feb 25, 6:10pm EST

Sun Feb 25, 5:10pm EST

Sun Feb 25, 4:10pm EST

Sun Feb 25, 3:10pm EST

Sun Feb 25, 2:10pm EST

Sun Feb 25, 1:10pm EST

Sun Feb 25, 12:10pm EST

Sun Feb 25, 11:10am EST

Sun Feb 25, 10:10am EST

Sun Feb 25, 9:10am EST

Sun Feb 25, 8:10am EST

Sun Feb 25, 7:10am EST

Sun Feb 25, 6:10am EST

Sun Feb 25, 5:10am EST

Sun Feb 25, 4:10am EST

Sun Feb 25, 3:10am EST

Sun Feb 25, 2:10am EST

Sun Feb 25, 1:10am EST

Sun Feb 25, 12:10am EST

Sat Feb 24, 11:10pm EST

Sat Feb 24, 10:10pm EST

Sat Feb 24, 9:10pm EST

Sat Feb 24, 8:10pm EST

Sat Feb 24, 7:10pm EST

Sat Feb 24, 6:10pm EST

Sat Feb 24, 5:10pm EST

Sat Feb 24, 4:10pm EST

Sat Feb 24, 3:10pm EST

Sat Feb 24, 2:10pm EST

Sat Feb 24, 1:10pm EST

Sat Feb 24, 12:10pm EST

Sat Feb 24, 11:10am EST

Sat Feb 24, 10:10am EST

Sat Feb 24, 9:10am EST